Overview Statistics Trail Chart Weather Telemetry Raw packets
 

This is the latest recevied weather packets stored in our database for station/object KI5NXU. If no packets are shown the sender has not sent any weather packets the latest 10 day(s).

<< 40 41 42 43 44 45 46 >>
Time Temp. Humidity Pressure Rain* Wind** Luminosity Snow
1788100490 31.11° C 55% 1016.4 hPa 0 mm - 298 W/m² -
1788100198 31.11° C 56% 1016.4 hPa 0 mm - 274 W/m² -
1788099884 30.56° C 56% 1016.8 hPa 0 mm - 257 W/m² -
1788099584 30.56° C 57% 1016.7 hPa 0 mm - 250 W/m² -
1788099280 30° C 58% 1016.6 hPa 0 mm - 55 W/m² -
1788098975 30° C 59% 1016.7 hPa 0 mm - 67 W/m² -
1788098670 29.44° C 60% 1016.4 hPa 0 mm - 200 W/m² -
1788098369 29.44° C 62% 1016.4 hPa 0 mm - 172 W/m² -
1788098065 29.44° C 61% 1016.4 hPa 0 mm - 58 W/m² -
1788097760 28.89° C 63% 1016.6 hPa 0 mm - 151 W/m² -
1788097455 28.89° C 64% 1016.6 hPa 0 mm - 143 W/m² -
1788097151 28.89° C 64% 1016.3 hPa 0 mm - 126 W/m² -
1788096847 28.33° C 65% 1016.6 hPa 0 mm - 117 W/m² -
1788096541 28.33° C 66% 1016.3 hPa 0 mm - 75 W/m² -
1788096238 27.78° C 67% 1016.2 hPa 0 mm - 66 W/m² -
1788095936 27.78° C 66% 1016.3 hPa 0 mm - 60 W/m² -
1788095636 27.78° C 67% 1016.1 hPa 0 mm - 55 W/m² -
1788095347 27.78° C 68% 1016 hPa 0 mm - 39 W/m² -
1788095027 27.22° C 69% 1016 hPa 0 mm - 35 W/m² -
1788094725 27.22° C 69% 1015.8 hPa 0 mm - 31 W/m² -
1788094422 27.22° C 69% 1016.1 hPa 0 mm - 29 W/m² -
1788094119 26.67° C 70% 1016.1 hPa 0 mm - 27 W/m² -
1788093814 26.67° C 70% 1015.9 hPa 0 mm - 24 W/m² -
1788093511 26.67° C 70% 1015.9 hPa 0 mm - 21 W/m² -
1788093207 26.67° C 71% 1015.9 hPa 0 mm - 17 W/m² -

* Rain latest hour (hover to see other rain measurements)
** Current wind speed in m/s (hover to see current wind gust speed)